Location: *
(48.0342°N, 1.6128°E)
Time: 00:30:07
(UTC+00:00)

Daily predictions for brighter satellites

Satellite Brightness Start Highest point End
(mag) Time Altitude Azimuth Time Altitude Azimuth Time Altitude Azimuth
Cosmos 2278 Rocket 4.2 00:36:49 24° NNE 00:36:49 24° NNE 00:38:57 10° NNE
CZ-2D R/B 4.4 00:45:08 10° NE 00:46:59 18° NE 00:46:59 18° NE
ATLAS 5 CENTAUR R/B 4.4 01:00:23 17° NNE 01:00:23 17° NNE 01:01:40 10° NE
USA 267 4.0 01:02:28 10° NE 01:08:08 47° N 01:08:08 47° N
Lacrosse 5 4.1 01:18:11 21° NE 01:18:11 21° NE 01:20:18 10° ENE
SL-16 R/B 3.5 01:24:48 41° N 01:24:48 41° N 01:28:40 10° NNW
ADEOS II 4.1 01:26:06 10° NE 01:29:29 20° E 01:29:29 20° E
USA 238 DEB 4.2 01:38:22 53° ENE 01:38:22 53° ENE 01:43:53 10° NE
USA 238 4.2 01:38:28 53° ENE 01:38:28 53° ENE 01:43:59 10° NE
BREEZE-M DEB (TANK) 4.4 01:48:42 46° ESE 01:48:42 46° ESE 01:58:08 10° E
Resurs 1-4 Rocket 3.4 01:42:01 10° NNE 01:45:12 38° NNE 01:45:12 38° NNE
Cosmos 2369 Rocket 3.5 01:52:52 33° E 01:52:52 33° E 01:57:13 10° NE
ARIANE 5 R/B 3.8 01:57:32 10° NNE 02:01:35 35° ENE 02:01:35 35° ENE
Cosmos 2278 Rocket 3.9 02:18:40 22° NNW 02:18:40 22° NNW 02:22:28 10° N
NOSS 3-2 (A) 3.4 02:20:34 78° NNE 02:20:34 78° NNE 02:26:48 10° NE
SME Rocket 4.0 02:14:04 10° NNE 02:20:15 68° N 02:20:15 68° N
ATLAS 3B R/B 3.0 02:21:10 52° SE 02:21:35 53° ESE 02:27:58 10° NE
NOSS 3-2 (C) 3.5 02:24:57 70° ESE 02:24:57 70° ESE 02:31:24 10° NE
CZ-2D R/B 3.1 02:24:46 10° N 02:28:18 37° NNW 02:28:18 37° NNW
Cosmos 1943 Rocket 2.3 02:31:09 70° ENE 02:31:09 70° ENE 02:36:18 10° NNE
IRS-1C 4.2 02:32:15 10° NNE 02:37:00 70° N 02:37:00 70° N
Cosmos 841 Rocket 4.4 02:39:17 38° NNW 02:39:17 38° NNW 02:43:06 10° NNE
ATLAS 5 CENTAUR R/B 3.8 02:41:54 18° NNW 02:42:36 19° NNW 02:46:15 10° NNE
Cosmos 2344 3.5 02:44:31 59° SW 02:46:14 86° NW 02:54:41 10° NE
USA 267 4.2 02:44:57 10° ENE 02:51:00 41° N 02:55:28 18° NW
IDEFIX/ARIANE 42P 4.5 02:49:02 10° NE 02:53:26 26° E 02:57:49 10° SSE
Cosmos 44 3.8 02:53:57 51° SE 02:54:12 51° ESE 02:58:52 10° NE
Cosmos 1782 3.9 02:55:55 41° NNE 02:55:55 41° NNE 02:58:35 10° N
Unknown 4.4 02:56:40 50° E 02:56:40 50° E 02:59:50 10° ENE
Unknown 4.3 02:58:16 52° E 02:58:16 52° E 03:01:30 10° ENE
BREEZE-M DEB (TANK) 4.3 02:42:33 10° W 02:58:31 81° N 03:02:45 10° E
Unknown 4.2 02:59:51 54° ENE 02:59:51 54° ENE 03:03:09 10° ENE
Cosmos 1092 Rocket 4.1 02:56:51 35° SSE 02:59:33 69° E 03:05:41 10° NNE
Lacrosse 5 2.5 02:57:25 30° NW 02:59:41 53° NNE 03:04:38 10° ESE
Unknown 4.1 03:01:28 57° ENE 03:01:28 57° ENE 03:04:50 10° ENE
CENTAUR R/B 2.5 02:59:40 59° SSW 03:01:00 84° SE 03:08:09 10° NE
Unknown 4.0 03:04:39 62° ENE 03:04:39 62° ENE 03:08:09 10° ENE
Spot 4 Rocket 3.8 02:59:24 10° NNE 03:04:34 80° WNW 03:04:57 74° SW
Unknown 4.0 03:05:31 60° NE 03:05:31 60° NE 03:08:54 10° ENE
Unknown 3.9 03:06:18 64° ENE 03:06:18 64° ENE 03:09:51 10° ENE
Cosmos 2263 4.1 03:05:23 63° SSW 03:06:20 88° ESE 03:11:59 10° NNE
Cosmos 1400 Rocket 3.3 03:06:43 54° E 03:06:43 54° E 03:10:29 10° NNE
SL-16 R/B 4.4 03:09:53 14° NW 03:09:53 14° NW 03:11:09 10° NW
Unknown 3.9 03:07:51 67° ENE 03:07:51 67° ENE 03:11:30 10° ENE
Unknown 3.8 03:09:23 70° ENE 03:09:23 70° ENE 03:13:05 10° ENE
ADEOS II 2.0 03:04:57 10° N 03:10:09 61° WNW 03:10:25 61° W
Unknown 3.7 03:11:16 73° ENE 03:11:16 73° ENE 03:15:04 10° ENE
Unknown 3.7 03:12:29 75° ENE 03:12:29 75° ENE 03:16:18 10° ENE
IRS-1D 4.4 03:08:39 10° N 03:13:10 35° WNW 03:13:10 35° WNW
Unknown 3.6 03:15:40 81° ENE 03:15:40 81° ENE 03:19:37 10° ENE
SL-24 DEB 4.4 03:13:51 29° SSE 03:16:15 72° E 03:20:59 10° N
Unknown 3.5 03:17:16 83° NE 03:17:16 83° NE 03:21:18 10° ENE
Unknown 3.6 03:17:48 79° NNE 03:17:48 79° NNE 03:21:46 10° ENE
Nadezhda 4 Rocket 4.0 03:16:37 50° WSW 03:17:51 60° WNW 03:23:55 10° N
Unknown 4.5 03:18:15 33° NNE 03:18:15 33° NNE 03:20:59 10° ENE
Unknown 3.5 03:19:03 82° N 03:19:03 82° N 03:23:09 10° ENE
Unknown 3.5 03:20:27 85° NNW 03:20:27 85° NNW 03:24:37 10° ENE
Unknown 3.5 03:22:04 83° NW 03:22:07 83° NNW 03:26:18 10° ENE
Cosmos 1656 Rocket 3.8 03:21:44 37° SSW 03:24:02 76° ESE 03:29:42 10° NNE
Unknown 3.5 03:25:15 77° WNW 03:25:26 80° NNW 03:29:36 10° ENE
Resurs 1-4 Rocket 3.8 03:23:00 10° NNW 03:26:16 18° NW 03:26:16 18° NW
CZ-2C R/B 2.8 03:22:43 10° N 03:26:29 66° NW 03:26:29 66° NW
SeaSat 1 4.0 03:22:27 10° NE 03:26:53 32° ESE 03:31:16 10° S
Unknown 3.5 03:26:50 74° WNW 03:27:05 79° NNW 03:31:15 10° ENE
USA 238 DEB 4.4 03:25:49 30° WNW 03:28:22 41° NNW 03:34:59 10° NE
USA 238 4.4 03:25:54 30° WNW 03:28:28 41° NNW 03:35:05 10° NE
Unknown 3.5 03:28:26 71° WNW 03:28:45 78° NNW 03:32:55 10° ENE
Cosmos 1346 Rocket 3.8 03:25:05 10° N 03:29:04 48° ENE 03:33:02 10° SSE
CZ-2D R/B 3.8 03:25:34 10° N 03:28:58 45° NW 03:28:58 45° NW
Unknown 3.5 03:30:03 68° WNW 03:30:27 76° NNW 03:34:36 10° ENE
Unknown 4.1 03:30:49 37° NE 03:30:49 37° NE 03:33:12 10° E
Cosmos 1536 3.9 03:27:46 10° N 03:31:36 44° ENE 03:35:25 10° SSE
H-2A R/B 3.8 03:29:53 10° NNE 03:33:26 35° E 03:36:57 10° SSE
Unknown 3.5 03:33:15 63° WNW 03:33:47 73° NNW 03:37:56 10° ENE
Unknown 3.7 03:35:07 56° WNW 03:35:44 67° NNW 03:39:53 10° ENE
Cosmos 2369 Rocket 2.7 03:34:40 38° W 03:36:02 44° NW 03:41:29 10° NNE
Cosmos 2084 Rocket 3.3 03:33:50 26° NW 03:36:16 76° SW 03:40:36 10° SE
Unknown 3.7 03:36:40 55° WNW 03:37:21 67° NNW 03:41:30 10° ENE
Unknown 3.6 03:36:46 56° WNW 03:37:27 69° NNW 03:41:36 10° ENE
Cosmos 2297 Rocket 4.2 03:34:27 10° NNW 03:39:18 28° NE 03:44:08 10° ESE
Unknown 4.4 03:38:45 31° NNW 03:39:33 35° N 03:42:49 10° ENE
Unknown 4.1 03:39:14 39° NW 03:39:58 45° NNW 03:43:40 10° ENE
Unknown 3.7 03:39:37 53° W 03:40:25 68° NNW 03:44:34 10° ENE
ARIANE 5 R/B 3.2 03:36:46 10° N 03:41:19 33° WNW 03:41:55 32° WNW
Cosmos 1553 Rocket 4.1 03:35:41 10° N 03:41:59 75° E 03:48:08 10° SSE
Falcon 9 debris 4.4 03:42:04 29° NNW 03:43:02 35° N 03:46:17 10° ENE
Cosmos 1500 3.2 03:39:28 10° N 03:43:14 80° E 03:47:00 10° SSE
RUBIN 8/PSLV 4.5 03:38:59 10° NNE 03:43:23 82° WNW 03:45:24 32° SSW
Unknown 3.7 03:42:49 48° W 03:43:46 66° NNW 03:47:54 10° ENE
Cosmos 1862 Rocket 3.5 03:42:46 27° S 03:45:14 88° W 03:49:46 10° N
Unknown 3.7 03:44:25 46° W 03:45:25 65° NNW 03:49:34 10° ENE
Cosmos 1833 4.4 03:40:37 10° NW 03:45:53 43° WSW 03:51:08 10° S
Cosmos 2242 Rocket 3.9 03:42:05 12° S 03:46:16 66° E 03:50:44 10° NNE
Unknown 3.8 03:46:01 44° W 03:47:06 64° NNW 03:51:14 10° ENE
Unknown 4.1 03:46:05 36° WNW 03:47:07 46° NNW 03:50:54 10° ENE
Unknown 3.8 03:47:38 43° W 03:48:47 63° NNW 03:52:55 10° ENE
Spot 2 4.0 03:45:33 10° NNE 03:50:10 80° WNW 03:52:37 26° SSW
ADEOS 3.6 03:46:24 10° NNE 03:51:40 85° ESE 03:56:33 12° SSW
MSX 4.5 03:46:14 10° NNE 03:51:54 55° E 03:57:30 10° S
Meteor 1-28 Rocket 4.5 03:55:16 25° WNW 03:55:16 25° WNW 03:57:22 10° NNW
Unknown 3.9 03:53:58 36° W 03:55:24 59° NNW 03:59:32 10° ENE
Cosmos 2026 Rocket 4.0 03:51:22 16° SSW 03:56:33 67° WNW 04:02:55 10° N
Unknown 3.9 03:55:36 35° W 03:57:06 58° NNW 04:01:12 10° ENE
Meteor 2-6 Rocket 4.4 03:54:03 23° SW 03:57:37 56° WNW 04:03:31 10° N
Cosmos 1417 Rocket 4.5 03:52:17 10° N 03:58:40 86° W 04:05:02 10° S
Unknown 3.9 03:57:11 34° W 03:58:45 58° NNW 04:02:52 10° ENE
Unknown 3.9 03:58:47 32° W 04:00:26 57° NNW 04:04:32 10° ENE
Unknown 4.4 03:58:56 24° NW 04:00:36 38° N 04:04:09 10° ENE
Aureole 2 Rocket 1.6 04:01:02 67° SSW 04:01:20 89° W 04:04:00 10° NNE
OPS 6432 4.5 03:59:58 31° SSW 04:01:27 68° SE 04:04:30 10° NE
Unknown 4.0 04:00:24 31° W 04:02:07 56° NNW 04:06:13 10° ENE
PSLV R/B 4.0 04:00:39 10° S 04:04:41 54° W 04:08:44 10° NNW
Unknown 4.0 04:03:37 29° W 04:05:29 54° NNW 04:09:34 10° ENE
Timation 2 Rocket 4.0 04:00:32 10° NW 04:06:16 47° WSW 04:11:57 10° S
Starlink (trailer) 4.0 04:05:10 28° W 04:07:06 54° NNW 04:11:11 10° ENE
Unknown 4.0 04:06:48 27° W 04:08:48 53° NNW 04:12:53 10° ENE
Unknown 4.1 04:08:23 26° W 04:10:28 52° NNW 04:14:33 10° ENE
Meteor 1-27 Rocket 3.7 04:05:04 10° SSW 04:10:56 76° WNW 04:16:43 10° N
Unknown 4.4 04:08:53 18° NW 04:11:07 37° N 04:14:28 10° ENE
SL-4 R/B 3.1 04:12:02 21° SSW 04:12:02 21° SSW 04:14:15 10° SSE
ATLAS 5 CENTAUR R/B 3.4 04:10:01 15° NW 04:11:38 21° N 04:15:58 10° NE
ATLAS 3B R/B 3.1 04:08:26 22° W 04:12:26 44° NW 04:18:45 10° NE
Cosmos 1812 2.8 04:10:46 20° SSW 04:13:15 56° WNW 04:17:04 10° N
Cosmos 1908 Rocket 3.4 04:09:20 10° NNW 04:13:40 74° W 04:17:59 10° S
Cosmos 1943 Rocket 3.5 04:12:41 18° W 04:15:04 24° NW 04:19:32 10° N
NOSS 3-2 (C) 4.4 04:12:24 19° W 04:16:16 36° NNW 04:22:38 10° NE
Gbstr 26 Del rocket 4.5 04:08:56 10° WNW 04:17:05 74° SSW 04:24:41 10° SE
Unknown 4.1 04:14:47 22° W 04:17:09 50° NNW 04:21:13 10° ENE
PSLV R/B 3.7 04:13:44 10° N 04:18:01 56° WNW 04:21:52 12° SSW
Unknown 4.2 04:16:24 22° W 04:18:51 49° NNW 04:22:54 10° ENE
Unknown 4.2 04:16:47 21° W 04:19:15 49° NNW 04:23:18 10° ENE
Cosmos 44 Rocket 3.5 04:15:04 12° SSW 04:19:45 73° SE 04:24:40 10° NE
Cosmos 1733 Rocket 4.0 04:17:38 10° NNW 04:21:21 26° W 04:23:43 17° SW
Unknown 4.2 04:19:34 20° W 04:22:09 48° NNW 04:26:11 10° ENE
Cosmos 1655 Rocket 4.0 04:17:16 10° SSW 04:23:30 80° W 04:29:50 10° N
Unknown 4.2 04:21:01 14° WNW 04:23:45 40° NNE 04:27:02 10° E
Unknown 4.2 04:21:16 19° W 04:23:57 47° NNW 04:27:58 10° ENE
S3M 3.9 04:18:32 10° NNW 04:24:41 70° W 04:30:54 10° S
Unknown 4.2 04:22:06 19° W 04:24:48 48° NNW 04:28:51 10° ENE
Cosmos 773 Rocket 4.0 04:20:33 13° SW 04:25:03 60° WNW 04:30:10 10° NNE
Meteor 1-11 Rocket 4.0 04:19:57 10° NNW 04:25:10 42° W 04:30:19 10° SSW
Iridium 4 Rocket 4.0 04:23:38 20° WSW 04:25:28 26° WNW 04:29:04 10° NNW
CZ-4B R/B 4.3 04:23:35 10° NNE 04:27:13 57° E 04:30:48 10° S
Unknown 4.3 04:24:25 18° W 04:27:14 47° NNW 04:31:16 10° ENE
Cosmos 1315 Rocket 3.1 04:23:59 13° SSW 04:27:34 48° WNW 04:31:35 10° N
FALCON 9 DEB 4.3 04:25:31 12° WNW 04:28:30 40° N 04:31:52 10° E
Unknown 4.3 04:25:57 17° W 04:28:50 47° NNW 04:32:52 10° ENE
ATLAS 5 CENTAUR R/B 4.3 04:26:10 10° NNW 04:29:18 16° N 04:32:40 10° NE
Unknown 4.3 04:26:27 17° W 04:29:21 46° NNW 04:33:23 10° ENE
ATLAS CENTAUR R/B 3.1 04:25:39 10° NNW 04:29:54 36° NE 04:33:49 10° ESE
Unknown 4.3 04:29:05 16° W 04:32:05 46° NNW 04:36:07 10° ENE
IDEFIX/ARIANE 42P 2.8 04:28:12 10° N 04:33:16 49° WNW 04:38:20 10° SW
USA 267 3.7 04:26:59 10° ESE 04:33:25 62° NNE 04:39:51 10° NW
Okean O Rocket 4.3 04:31:06 10° NE 04:34:42 24° E 04:38:18 10° SSE
Unknown 4.3 04:32:19 15° W 04:35:30 45° N 04:39:30 10° ENE
Cosmos 44 4.3 04:32:23 16° W 04:35:37 32° NW 04:39:52 10° NNE
Unknown 4.3 04:33:55 15° W 04:37:10 45° N 04:41:10 10° ENE
Cosmos 1666 2.6 04:34:09 10° NNW 04:37:52 59° W 04:41:35 10° S
Unknown 4.4 04:35:30 14° W 04:38:50 44° N 04:42:50 10° ENE
Cosmos 1340 3.5 04:36:47 10° NNW 04:40:04 28° W 04:43:19 10° SSW
CZ-2C R/B 2.4 04:35:31 10° NNE 04:40:27 88° WNW 04:45:31 10° SSW
Unknown 4.4 04:37:07 14° W 04:40:31 44° N 04:44:31 10° ENE
Lacrosse 5 2.2 04:37:51 10° WNW 04:42:38 43° SW 04:47:22 10° SSE
Unknown 4.4 04:40:19 13° W 04:43:51 43° N 04:47:51 10° ENE
Unknown 4.5 04:40:48 12° WNW 04:44:22 41° N 04:48:13 10° ENE
Unknown 4.4 04:41:58 12° W 04:45:34 43° N 04:49:33 10° ENE
Unknown 4.4 04:43:30 12° W 04:47:12 43° N 04:51:11 10° ENE
Meteor 1-31 Rocket 2.7 04:43:31 10° N 04:47:27 80° WNW 04:51:20 10° SSW
PSLV R/B 4.4 04:44:05 10° NNE 04:48:06 63° ESE 04:51:59 10° S
Unknown 4.4 04:45:02 11° W 04:48:48 43° N 04:52:47 10° ENE
ADEOS II 4.0 04:47:14 10° NNW 04:48:50 11° NW 04:50:26 10° WNW
Unknown 4.4 04:46:56 11° W 04:50:48 43° N 04:54:47 10° ENE
Unknown 4.4 04:48:08 10° W 04:52:01 43° N 04:55:59 10° ENE
CENTAUR R/B 3.7 04:46:52 11° W 04:52:32 34° NNW 04:59:17 10° NE
Cosmos 1680 Rocket 3.9 04:48:22 10° SSW 04:53:35 70° ESE 04:58:48 10° NNE
Unknown 2.9 04:50:49 10° WNW 04:54:04 86° NNE 04:57:17 10° ESE
Cosmos 923 Rocket 4.1 04:49:18 10° SSW 04:54:39 90° NNW 05:00:01 10° NNE
Unknown 4.4 04:51:23 10° W 04:55:21 42° N 04:59:20 10° ENE
Shenzhou-11 Module 4.5 04:55:13 10° S 04:56:32 13° SSE 04:57:51 10° SE
Okean 1 3.3 04:52:38 10° S 04:56:36 87° E 05:00:36 10° N
Cosmos 1782 Rocket 3.8 04:52:25 10° NNW 04:56:37 46° W 05:00:49 10° SSW
Unknown 4.5 04:53:04 10° W 04:57:02 42° N 05:01:00 10° ENE
Unknown 4.5 04:53:30 10° WNW 04:57:25 41° N 05:01:19 10° ENE
Unknown 4.5 04:54:58 10° WNW 04:58:56 42° N 05:02:54 10° ENE
SKYMED 2 3.7 04:55:53 10° SSE 05:00:13 83° ENE 05:04:36 10° NNW
Unknown 4.5 04:56:25 10° WNW 05:00:23 42° N 05:04:21 10° ENE
Cosmos 1975 3.0 04:57:16 10° N 05:01:22 84° E 05:05:26 10° S
Unknown 4.5 04:58:06 10° WNW 05:02:04 42° N 05:06:01 10° ENE
Cosmos 2292 Rocket 3.6 04:58:33 10° S 05:03:28 89° E 05:07:13 10° N
Cosmos 2266 Rocket 4.0 04:57:59 10° SSW 05:03:59 61° WNW 05:09:59 10° N
SeaSat 1 2.9 04:59:48 10° NNE 05:04:29 44° NW 05:09:10 10° WSW
Cosmos 1346 Rocket 4.4 05:02:26 10° NW 05:05:03 17° W 05:07:39 10° SW
Unknown 3.1 05:02:25 10° WNW 05:05:10 43° SW 05:07:54 10° SE
Cosmos 1536 4.3 05:05:07 10° NW 05:07:41 17° W 05:10:14 10° SW
Cosmos 2151 Rocket 4.0 05:03:18 10° N 05:07:44 71° E 05:12:10 10° SSE
Cosmos 2056 Rocket 3.8 05:03:09 10° NNW 05:08:28 75° ENE 05:13:39 10° SSE
Meteor 1-18 Rocket 4.3 05:02:52 10° S 05:08:29 87° W 05:14:15 10° N
H-2A R/B 3.6 05:05:48 10° NNW 05:08:46 21° WNW 05:11:43 10° WSW
Cosmos 1441 Rocket 4.5 05:05:41 10° N 05:09:18 45° ENE 05:12:55 10° SSE
Helios 1A Rocket 3.5 05:05:46 10° NNE 05:09:49 63° ESE 05:13:52 10° S
Cosmos 1703 Rocket 4.3 05:07:24 10° SW 05:11:23 32° WNW 05:15:22 10° N
